Home > Weather > Stamford > Past weeks

Flag for USA Past Weather in Stamford, Connecticut, USA — Yesterday and Last 2 Weeks

Now
89 °F

Passing clouds.


Feels Like: 88 °F
Forecast: 69 / 91 °F
Wind: 10 mph from Northwest

Location: Westchester County Airport

Current Time: Jul 27, 2016 at 5:08:08 PM

Latest Report: Jul 27, 2016 at 3:56 PM


Visibility: 10 mi

Pressure: 29.89 "Hg

Humidity: 36%

Dew Point: 59 °F

Location of StamfordLocation

Past Weather in Stamford — Graph

°F

Stamford Temperature Yesterday

Maximum temperature yesterday: 88 °F (at 2:56 PM)
Minimum temperature yesterday: 70 °F (at 4:56 AM)
Average temperature yesterday: 79 °F

High & Low Weather Summary for the Past Weeks

 TemperatureHumidityPressure
High94 °F (Jul 23, 2:56 PM)97% (Jul 14, 3:56 AM)30.23 "Hg (Jul 14, 3:56 AM)
Low63 °F (Jul 20, 3:56 AM)25% (Jul 23, 3:56 PM)29.76 "Hg (Jul 22, 6:56 PM)
Average78 °F65%29.97 "Hg
* Reported Jul 12 3:56 PM — Jul 27 3:56 PM, Stamford, Weather by CustomWeather, © 2016

Note: Actual official high and low records may vary slightly from our data, if they occured in-between our weather recording intervals... More about our weather records

Advertising

Stamford Weather History for the Previous 24 Hours

Scroll right to see more
 ConditionsComfort  
Time TempWeatherWind HumidityBarometerVisibility
3:56 PM
Wed, Jul 27
89 °FPassing clouds.10 mph36%29.89 "Hg10 mi
2:56 PM88 °FPassing clouds.7 mph39%29.90 "Hg10 mi
1:56 PM87 °FPassing clouds.7 mph40%29.92 "Hg10 mi
12:56 PM86 °FSunny.6 mph42%29.93 "Hg10 mi
11:56 AM84 °FSunny.No wind41%29.94 "Hg10 mi
10:56 AM84 °FSunny.7 mph45%29.94 "Hg10 mi
9:56 AM82 °FSunny.No wind48%29.94 "Hg10 mi
8:56 AM80 °FSunny.3 mph54%29.94 "Hg10 mi
7:56 AM75 °FSunny.5 mph66%29.94 "Hg10 mi
6:56 AM71 °FSunny.3 mph71%29.94 "Hg10 mi
5:56 AM68 °FClear.7 mph78%29.93 "Hg10 mi
4:56 AM67 °FClear.6 mph81%29.92 "Hg10 mi
3:56 AM69 °FClear.7 mph79%29.92 "Hg10 mi
2:56 AM70 °FClear.7 mph76%29.92 "Hg10 mi
1:56 AM71 °FClear.6 mph73%29.92 "Hg10 mi
12:56 AM71 °FClear.6 mph76%29.92 "Hg10 mi
11:56 PM
Tue, Jul 26
74 °FClear.5 mph69%29.92 "Hg10 mi
10:56 PM75 °FClear.5 mph74%29.91 "Hg10 mi
9:56 PM73 °FClear.3 mph74%29.91 "Hg10 mi
8:56 PM78 °FSunny.6 mph58%29.89 "Hg10 mi
7:56 PM83 °FSunny.8 mph46%29.87 "Hg10 mi
6:56 PM85 °FSunny.7 mph43%29.85 "Hg10 mi
5:56 PM87 °FSunny.12 mph40%29.85 "Hg10 mi
Weather by CustomWeather, © 2016

See weather overviewHow to use our weather pages